[TLELIST] Archives

 

Current TLEs

August 28th 2007 PDT

HST 1 20580U 90037B 07239.85425759 .00000290 00000-0 96364-5 0 9477 2 20580 028.4673 082.7804 0003962 141.1168 218.9710 15.00271797750737 ISS (ZARYA) 1 25544U 98067A 07240.47050058 .00012723 00000-0 82907-4 0 8738 2 25544 051.6352 090.8149 0008144 299.5313 126.6153 15.76304255502182 CXO 1 25867U 99040B 07239.08333333 .00000292 00000-0 00000+0 0 1047 2 25867 062.2420 087.7600 6336042 282.9058 002.4209 00.37806137 2523 ____________________________________________________________________ These 2-Line ...Continue Reading

Current TLEs

August 27th 2007 PDT

HST 1 20580U 90037B 07237.92506874 +.00000252 +00000-0 +66791-5 0 09638 2 20580 028.4675 095.3614 0003848 122.7040 237.3919 15.00271124750443 ISS (ZARYA) 1 25544U 98067A 07239.45484308 .00013250 00000-0 86269-4 0 8677 2 25544 051.6362 096.0500 0008075 296.7595 121.9841 15.76277054502027 CXO 1 25867U 99040B 07239.08333333 .00000292 00000-0 00000+0 0 1047 2 25867 062.2420 087.7600 6336042 282.9058 002.4209 00.37806137 2523 ____________________________________________________________________ These 2-Line ...Continue Reading

Current TLEs

August 26th 2007 PDT

HST 1 20580U 90037B 07237.99159252 .00000257 00000-0 70025-5 0 9460 2 20580 028.4674 094.9275 0003857 123.2596 236.8364 15.00271167750458 ISS (ZARYA) 1 25544U 98067A 07238.44063326 .00010746 00000-0 70864-4 0 8590 2 25544 051.6361 101.2744 0008066 290.9597 128.7127 15.76244555501866 CXO 1 25867U 99040B 07239.08333333 .00000292 00000-0 00000+0 0 1047 2 25867 062.2420 087.7600 6336042 282.9058 002.4209 00.37806137 2523 ____________________________________________________________________ These 2-Line ...Continue Reading

Current TLEs

August 25th 2007 PDT

HST 1 20580U 90037B 07236.86068826 .00000239 00000-0 56450-5 0 9456 2 20580 028.4675 102.3033 0003766 111.7358 248.3630 15.00270801750281 ISS (ZARYA) 1 25544U 98067A 07237.48856757 .00011016 00000-0 72604-4 0 8541 2 25544 051.6360 106.1807 0008020 286.8292 126.7536 15.76223939501714 CXO 1 25867U 99040B 07236.37500000 .00000243 00000-0 00000+0 0 1038 2 25867 062.2272 087.8198 6330925 282.9341 353.7368 00.37804370 2514 ____________________________________________________________________ These 2-Line ...Continue Reading

Current TLEs

August 24th 2007 PDT

HST 1 20580U 90037B 07235.72978304 .00000290 00000-0 96584-5 0 9449 2 20580 028.4673 109.6773 0003754 099.1977 260.9037 15.00270904750110 ISS (ZARYA) 1 25544U 98067A 07236.22846339 .00011130 00000-0 73407-4 0 8467 2 25544 051.6358 112.6735 0008016 282.9306 175.5430 15.76194975501511 CXO 1 25867U 99040B 07236.37500000 .00000243 00000-0 00000+0 0 1038 2 25867 062.2272 087.8198 6330925 282.9341 353.7368 00.37804370 2514 ____________________________________________________________________ These 2-Line ...Continue Reading

Current TLEs

August 23rd 2007 PDT

HST 1 20580U 90037B 07233.93363913 +.00000280 +00000-0 +88819-5 0 09568 2 20580 028.4673 121.3905 0003661 079.3872 280.7126 15.00270328749846 ISS (ZARYA) 1 25544U 98067A 07235.27841633 .00014873 00000-0 96725-4 0 8378 2 25544 051.6365 117.5717 0008104 278.8893 185.1326 15.76179685501361 CXO 1 25867U 99040B 07233.70833333 .00000206 00000-0 00000+0 0 1028 2 25867 062.2153 087.8712 6325267 282.9799 350.6867 00.37804478 2502 ____________________________________________________________________ These 2-Line ...Continue Reading

Current TLEs

August 22nd 2007 PDT

HST 1 20580U 90037B 07234.13321072 .00000292 00000-0 97414-5 0 9431 2 20580 028.4673 120.0883 0003706 081.6831 278.4180 15.00270474749877 ISS (ZARYA) 1 25544U 98067A 07234.50947021 .00011449 00000-0 75515-4 0 8326 2 25544 051.6346 121.5307 0008095 275.7685 142.1518 15.76155285501247 CXO 1 25867U 99040B 07233.70833333 .00000206 00000-0 00000+0 0 1028 2 25867 062.2153 087.8712 6325267 282.9799 350.6867 00.37804478 2502 ____________________________________________________________________ These 2-Line ...Continue Reading

Current TLEs

August 21st 2007 PDT

HST 1 20580U 90037B 07232.86925643 .00000315 00000-0 11608-4 0 9428 2 20580 028.4673 128.3310 0003635 068.1657 291.9318 15.00270315749686 ISS (ZARYA) 1 25544U 98067A 07233.31264010 .00020566 00000-0 13229-3 0 8260 2 25544 051.6341 127.6978 0008110 267.9034 194.5058 15.76142771501057 CXO 1 25867U 99040B 07233.70833333 .00000206 00000-0 00000+0 0 1028 2 25867 062.2153 087.8712 6325267 282.9799 350.6867 00.37804478 2502 ____________________________________________________________________ These 2-Line ...Continue Reading

Current TLEs

August 20th 2007 PDT

HST 1 20580U 90037B 07230.94006224 +.00000293 +00000-0 +98275-5 0 09522 2 20580 028.4676 140.9123 0003472 047.1081 312.9791 15.00269565749390 ISS (ZARYA) 1 25544U 98067A 07232.54443350 .00026579 00000-0 16981-3 0 8202 2 25544 051.6337 131.6551 0007909 266.0008 154.6314 15.76122310500935 CXO 1 25867U 99040B 07231.08333333 .00000177 00000-0 00000+0 0 1018 2 25867 062.2020 087.9113 6320105 283.0390 353.2869 00.37804514 2496 ____________________________________________________________________ These 2-Line ...Continue Reading

Current TLEs

August 19th 2007 PDT

HST 1 20580U 90037B 07231.13963402 .00000339 00000-0 13443-4 0 9416 2 20580 028.4673 139.6085 0003605 049.8065 310.2840 15.00269936749420 ISS (ZARYA) 1 25544U 98067A 07231.34738624 -.00017018 00000-0 -10283-3 0 8119 2 25544 051.6329 137.8213 0008073 260.9650 203.1201 15.76039501500741 CXO 1 25867U 99040B 07231.08333333 .00000177 00000-0 00000+0 0 1018 2 25867 062.2020 087.9113 6320105 283.0390 353.2869 00.37804514 2496 ____________________________________________________________________ These 2-Line ...Continue Reading
  • This mailing list is a public mailing list - anyone may join or leave, at any time.
  • This mailing list is announce-only.

International Space Station (ISS) / Hubble Space Telescope (HST) / Chandra X-Ray Observatory Orbital Data via EMAIL

Privacy Policy:

Private list